Weather in Maraza

Azerbaijan     40°31′55″N   48°55′33″E
temp.,
°C
wind,
m/s
gust,
m/s
humid.,
%
clouds,
%
prec.,
mm/h
press.,
hPa
HPBL,
m
17 october, sun
sun1701:00+14wsw23860 0.0 101563
04:00+13wsw22860 0.0 101438
07:00+12wsw22880 0.0 101426
10:00+16sw22653 0.0 1014361
13:00+19s33605 0.0 1013739
16:00+19se335971 0.0 1011807
19:00+17ese22715 0.0 1012310
22:00+15ene11780 0.0 101224
18 october, mon
mon1801:00+15ene11780 0.0 101111
04:00+14ene22780 0.0 101113
07:00+13n22866 0.1 101214
10:00+16nw126762 0.4 1013486
13:00+19wsw225498 0.3 10121304
16:00+18sw3363100 0.5 1012898
19:00+17s1170100 0.5 1013443
22:00+16se017269 1.1 1014261
19 october, tue
tue1901:00+14w128498 0.6 101564
04:00+14nnw1285100 1.8 101697
07:00+14ssw007894 0.7 1017101
10:00+14ssw127995 1.7 1018348
13:00+16sw337357 1.6 1016684
16:00+16sw457060 3.8 1015771
19:00+15s568192 1.6 1016656
22:00+14sw4787100 1.9 1016656
20 october, wed
wed2001:00+13sw6109175 0.4 1015710
04:00+13nw238296 0.6 1015524
07:00+11ne36843 0.0 1018429
10:00+11nne6668100 0.1 1020542
13:00+10ne3372100 0.1 1020517
16:00+9ne4474100 0.1 1021551
19:00+8nne8976100 0.3 1025565
22:00+7nne7978100 0.6 1027593
21 october, thu
thu2101:00+6nne6773100 0.5 1028507
04:00+6ne3371100 0.8 1028503
07:00+6ne2269100 0.0 1029434
10:00+7e1170100 0.1 1031440
13:00+7ssw2373100 0.0 1030526
16:00+8wsw4573100 0.0 1029684
19:00+7wsw36786 0.0 1030456
22:00+7wsw368120 0.0 1030252